#timestamp,LO_Frequency,Hit,StdDev 
1572706815.3,286046999.4,N
1572706835.2,286046999.8,N
1572706855.9,286047001.9,N
1572706875.7,286047002.1,N
1572706895.6,286047000.7,N
1572706915.4,286047000.5,N
1572706935.2,286047005.0,N
1572706955.1,286047004.9,N
1572706956.0,286047004.9,N
1572706975.8,286047008.2,N
1572706995.7,286047012.8,N
1572707015.5,286047014.8,N
1572707035.4,286047017.5,N
1572707055.2,286047015.2,N
1572707075.0,286047011.1,N
1572707075.9,286047011.1,N
1572707095.8,286047011.5,N
1572707115.6,286047010.5,N
1572707135.5,286047008.5,N
1572707155.3,286047007.7,N
1572707175.1,286047007.8,N
1572707195.9,286047010.8,N
1572707215.7,286047006.3,N
1572707235.5,286047009.1,N
1572707255.4,286047007.0,N
1572707275.2,286047008.7,N
1572707295.1,286047006.9,N
1572707296.0,286047006.9,N
1572707315.8,286047006.7,N
1572707335.6,286047006.2,N
1572707355.5,286047004.5,N
1572707375.3,286047005.8,N
1572707395.2,286047005.2,N
1572707415.9,286047005.5,N
1572707435.7,286047003.7,N
1572707455.6,286047002.0,N
1572707475.4,286047001.0,N
1572707495.3,286046995.5,N
1572707515.1,286046993.2,N
1572707516.0,286046993.2,N
1572707535.8,286046991.6,N
1572707555.7,286046991.5,N
1572707575.5,286046991.9,N
1572707595.4,286046992.4,N
1572707615.2,286046991.0,N
1572707635.0,286046991.7,N
1572707635.9,286046991.7,N
1572707655.8,286046990.4,N
1572707675.6,286046992.0,N
1572707695.5,286046995.9,N
1572707715.3,286046995.4,N
1572707735.1,286046997.9,N
1572707755.9,286046997.1,N
1572707775.7,286046996.7,N
1572707795.5,286046997.1,N
1572707815.4,286046998.0,N
1572707835.2,286046995.2,N
1572707855.1,286046999.1,N
1572707856.0,286046999.1,N
1572707875.8,286046997.4,N
1572707895.6,286046998.7,N
1572707915.5,286046999.6,N
1572707935.3,286046997.9,N
1572707955.2,286046997.8,N
1572707975.9,286046992.0,N
1572707995.7,286046994.0,N
1572708015.6,286046997.9,N
1572708035.4,286047001.1,N
1572708055.3,286046998.7,N
1572708075.1,286046998.5,N
1572708076.0,286046998.5,N
1572708095.8,286046998.1,N
1572708115.7,286046998.7,N
1572708135.5,286047000.6,N
1572708155.3,286047000.9,N
1572708175.2,286047000.2,N
1572708195.0,286047003.1,N
1572708195.9,286047003.1,N
1572708215.8,286047002.0,N
1572708235.6,286047002.4,N
1572708255.4,286047001.5,N
1572708275.3,286046999.8,N
1572708295.1,286046998.6,N
1572708315.9,286046999.2,N
1572708335.3,286046998.0,N
1572708355.1,286046993.8,N
1572708375.9,286046993.8,N
1572708395.7,286046992.0,Y
1572708415.6,286046990.1,P
1572708435.4,286046988.3,N
1572708455.2,286046988.0,N
1572708475.1,286046994.1,N
1572708476.0,286046994.1,N
1572708495.8,286046993.7,N
1572708515.7,286046988.7,Y
1572708535.5,286046994.0,P
1572708555.3,286046991.4,P
1572708575.2,286046992.3,P
1572708595.0,286046988.8,Y
1572708595.9,286046988.8,P
1572708615.8,286046998.0,N
1572708635.6,286047003.4,N
1572708655.4,286047009.0,N
1572708675.3,286047005.1,N
1572708695.1,286047006.3,N
1572708715.8,286047009.1,N
1572708735.7,286047007.5,N
1572708755.5,286047004.6,N
1572708775.4,286047005.7,N
1572708795.2,286047001.7,N
1572708815.0,286047001.7,N
1572708815.9,286047001.7,N
1572708835.8,286047005.2,N
1572708855.6,286047007.9,N
1572708875.5,286047006.9,N
1572708895.3,286047008.5,N
1572708915.1,286047008.5,N
1572708935.9,286047006.9,N
1572708955.7,286047007.6,N
1572708975.5,286047007.1,N
1572708995.4,286047004.5,N
1572709015.2,286047007.4,N
1572709035.1,286047007.2,N
1572709036.0,286047007.2,N
1572709055.8,286047009.2,N
1572709075.6,286047010.3,N
1572709095.5,286047046.7,Y
1572709115.3,286047008.1,P
1572709135.2,286047011.9,P
1572709155.9,286047011.6,P
1572709175.7,286047010.5,Y
1572709195.6,286047000.9,P
1572709215.4,286046996.7,N
1572709235.3,286046995.2,N
1572709255.1,286046996.3,N
1572709256.0,286046996.3,N
1572709275.8,286046993.3,N
1572709295.7,286046996.2,N
1572709315.5,286046995.1,N
1572709335.3,286046996.2,N
1572709355.2,286046995.2,N
1572709375.0,286046993.4,N
1572709375.9,286046986.3,Y
1572709395.8,286046997.0,P
1572709415.6,286046998.1,P
1572709435.4,286046998.9,N
1572709455.3,286046997.2,Y
1572709475.1,286047000.8,P
1572709495.9,286047002.8,N
1572709515.7,286046997.8,N
1572709535.5,286046999.4,N
1572709555.4,286046993.7,Y
1572709575.2,286046998.4,P
1572709595.1,286047001.3,N
1572709596.0,286047001.3,N
1572709615.8,286047004.6,Y
1572709635.6,286047005.6,P
1572709655.5,286047005.3,N
1572709675.3,286047006.4,N
1572709695.2,286047005.3,N
1572709715.9,286047004.8,N
1572709735.7,286047004.6,N
1572709755.6,286047003.9,N
1572709775.4,286046998.5,N
1572709795.2,286047002.3,N
1572709815.1,286047005.8,N
1572709816.0,286047005.8,N
1572709835.8,286047007.3,Y
1572709855.7,286047004.3,P
1572709875.5,286047001.8,P
1572709895.3,286047005.1,P
1572709915.2,286047004.5,Y
1572709935.0,286047004.1,P
1572709935.9,286047004.1,P
1572709955.8,286047005.2,P
1572709975.6,286047005.2,Y
1572709995.4,286047002.7,P
1572710015.3,286047000.1,N
1572710035.1,286047000.9,N
1572710055.9,286047004.4,N
1572710075.7,286047001.3,N
1572710095.5,286047009.1,Y
1572710115.4,286047010.3,P
1572710135.2,286047008.4,N
1572710155.0,286047008.0,N
1572710156.0,286047008.0,N
1572710175.8,286047008.3,Y
1572710195.6,286047001.8,P
1572710215.5,286047002.2,N
1572710235.3,286047002.0,N
1572710255.1,286046997.0,N
1572710275.9,286046995.1,N
1572710295.7,286046994.2,N
1572710315.6,286046991.2,N
1572710335.4,286046990.3,N
1572710355.2,286046992.8,N
1572710375.1,286046992.1,N
1572710376.0,286046992.1,N
1572710395.8,286046991.9,N
